Wind_Speed
63 63 63 63 62 61 60 60 59 59 58 59 59 57 56 56 55 55 54 55 55 54 55 55 55 55 55 55 56 57 57 58 59 60 61 61 62 64
62 62 62 62 61 60 58 57 58 59 58 59 58 57 57 57 57 55 55 56 55 56 56 56 56 57 57 57 57 58 59 60 61 62 63 65 66 67
58 58 58 58 57 57 57 56 56 55 56 57 56 57 57 58 58 58 56 57 56 57 57 58 58 58 58 58 59 59 60 61 62 63 64 66 67 68
50 50 51 51 52 52 53 53 54 54 55 56 56 57 58 58 58 58 57 57 57 57 58 58 58 58 58 58 59 60 61 61 62 63 65 66 68 70
43 43 43 44 45 46 47 48 50 51 51 52 53 54 55 56 57 57 57 57 57 57 57 57 58 58 59 60 61 61 62 63 63 65 66 67 69 70
37 37 36 38 39 40 42 43 44 45 46 48 50 51 52 53 54 55 56 57 57 56 56 57 58 59 61 61 62 62 63 64 64 65 66 66 66 67
30 30 30 32 34 35 37 38 39 41 43 45 47 49 51 52 53 54 54 55 55 56 56 58 59 61 61 61 62 63 63 63 63 63 62 62 62 62
25 26 26 27 28 29 31 34 36 38 41 43 45 48 49 50 51 52 53 54 55 56 57 59 60 60 60 61 61 61 61 60 59 58 57 57 57 58
22 22 22 24 25 26 28 30 34 37 40 42 44 46 47 49 50 52 54 56 57 58 58 58 59 59 60 60 60 59 58 57 55 54 54 54 53 53
22 22 23 24 26 28 29 31 33 36 37 40 43 45 47 49 51 53 55 56 57 58 58 57 57 57 57 57 56 55 55 53 51 50 49 48 47 47
22 22 23 25 26 27 29 32 34 37 39 42 44 47 49 51 53 54 55 56 56 56 56 55 53 51 51 52 52 52 50 49 47 47 45 43 42 41
23 23 24 26 27 30 32 34 37 39 42 44 47 49 51 53 54 54 55 55 54 53 52 50 49 47 44 46 49 49 48 47 45 44 42 40 39 38
25 26 28 29 31 33 35 37 39 42 44 47 49 51 52 52 53 53 54 53 52 50 48 46 45 44 42 40 42 44 44 43 42 41 39 38 37 36
27 28 30 32 34 36 38 40 42 44 46 48 50 51 52 52 53 53 52 51 48 47 45 44 42 40 39 38 37 38 39 39 38 37 36 36 36 35
29 30 32 34 36 38 41 43 44 46 48 49 51 51 52 53 53 52 50 47 45 44 43 41 38 36 36 35 34 35 35 35 35 33 33 34 34 34
31 33 35 37 39 41 43 45 46 48 49 50 51 52 53 53 51 48 45 43 41 40 40 37 35 34 33 33 33 33 33 32 31 31 31 32 33 33
34 36 37 39 41 43 45 47 48 49 50 51 52 52 51 49 46 43 40 38 37 36 36 36 35 33 32 32 32 32 32 31 30 29 29 29 32 32
36 38 40 41 43 45 47 48 49 50 51 51 50 49 47 44 41 38 36 35 34 33 33 33 33 32 31 31 33 32 31 31 30 30 30 29 29 31
38 40 42 43 45 47 48 49 50 51 51 50 48 45 43 40 37 35 34 32 31 31 32 32 32 31 29 28 30 33 32 30 30 30 31 30 28 29
40 42 44 45 47 48 49 50 50 50 49 47 45 43 40 37 34 33 31 31 30 30 31 32 32 31 30 28 27 31 34 32 30 29 30 29 29 28
42 44 45 47 48 49 50 50 50 49 47 45 43 40 37 34 33 32 31 30 30 30 30 31 32 32 31 30 28 28 32 33 32 30 29 27 26 26
44 45 47 48 49 50 50 49 49 47 46 44 41 38 36 34 33 32 32 31 31 31 31 31 32 32 32 31 30 29 30 32 32 32 31 28 24 23
45 46 48 49 49 50 49 48 48 46 44 42 40 37 35 34 33 33 33 32 32 32 32 31 32 32 32 32 31 30 30 30 30 30 30 30 26 23
Wind_Direction
274 273 272 271 270 270 271 272 272 272 273 273 275 277 279 280 281 281 283 283 284 284 285 285 283 283 282 281 281 281 279 278 277 275 275 274 274 273
275 273 271 270 269 269 269 270 271 271 271 272 273 275 278 280 280 283 284 285 285 285 286 286 284 284 284 283 282 282 281 280 278 277 276 275 274 273
277 274 271 269 268 267 266 267 268 269 271 272 273 275 277 280 282 283 284 285 285 285 286 286 285 285 285 285 284 283 282 281 279 278 278 277 276 275
281 276 273 270 268 267 267 266 266 268 270 272 273 275 277 279 282 284 285 286 285 286 287 286 286 286 286 285 284 284 283 282 281 280 279 279 278 277
284 279 275 272 269 267 267 266 267 268 269 272 274 276 279 280 283 284 285 286 286 287 287 287 287 287 287 286 286 285 285 284 283 282 281 280 279 278
287 283 278 273 270 268 268 268 268 269 271 274 276 278 280 283 284 285 286 287 287 288 288 289 289 289 288 288 287 286 286 285 284 283 282 281 279 278
292 287 282 277 273 272 272 272 272 274 276 278 279 281 283 284 285 286 287 288 289 290 291 291 291 290 290 289 288 288 287 286 285 284 283 281 280 279
296 290 286 283 280 278 276 275 277 279 279 281 282 284 285 286 287 288 290 291 291 291 292 292 292 292 291 290 290 289 288 288 287 286 285 283 282 280
302 298 292 288 288 287 284 283 283 284 285 286 287 287 288 289 291 292 292 293 292 292 293 293 293 293 292 291 290 290 289 289 288 287 285 284 283 282
305 300 296 293 291 290 289 289 290 291 290 290 291 291 292 292 293 293 294 294 294 294 294 294 294 294 293 292 291 291 291 290 290 289 287 285 283 282
310 305 302 300 299 298 297 295 295 294 295 295 296 296 296 296 296 296 297 297 296 296 296 296 294 294 294 293 293 293 293 292 292 291 289 287 284 283
312 310 307 305 304 303 303 302 301 300 301 300 300 299 299 299 299 299 299 298 297 297 296 296 296 295 294 294 294 294 294 293 293 293 291 289 287 285
311 310 309 308 307 307 306 306 305 304 304 303 303 303 302 302 301 301 300 299 299 298 297 297 296 295 295 294 294 294 294 293 293 292 291 290 289 287
312 311 311 311 310 309 309 308 308 308 307 307 306 305 304 303 303 302 301 300 299 298 298 297 297 296 296 296 295 294 295 294 293 292 291 291 290 290
313 313 313 312 312 311 311 311 311 311 310 310 308 307 305 305 304 302 301 300 299 299 299 299 298 299 298 297 297 296 296 296 295 294 292 291 290 291
313 314 314 314 314 313 313 313 313 313 313 312 311 309 307 306 304 302 300 299 298 299 300 300 301 301 301 300 299 298 298 297 295 294 293 292 291 291
314 314 315 315 315 315 314 314 315 315 315 314 313 311 309 308 306 303 301 300 299 299 299 300 301 303 303 303 301 301 300 300 298 296 295 293 291 290
314 315 316 316 316 316 315 315 316 316 316 316 315 314 312 310 308 305 303 301 299 299 298 299 300 302 304 305 304 303 303 302 301 300 299 297 294 292
316 316 317 317 317 317 316 317 317 317 318 318 317 316 314 312 309 307 304 303 301 301 300 300 301 302 302 303 303 303 303 302 301 301 301 299 295 292
316 317 317 317 318 318 318 318 318 318 319 319 318 316 315 313 311 309 307 305 304 303 302 302 303 304 304 304 304 303 303 303 302 301 300 299 297 293
316 317 317 318 318 319 319 319 319 319 319 319 317 316 314 313 311 310 308 307 305 304 303 303 303 304 304 306 306 304 304 305 305 305 302 299 296 294
317 317 318 319 319 319 319 319 320 320 319 319 317 315 313 311 311 310 308 307 306 305 304 303 303 303 304 305 306 305 304 304 306 306 304 302 299 293
317 318 318 319 319 319 319 320 320 320 319 318 316 314 312 311 310 309 309 308 306 305 304 303 303 303 303 304 305 305 304 304 304 304 303 302 301 297
Height
5692 5690 5689 5689 5689 5689 5689 5689 5688 5688 5689 5689 5688 5687 5686 5684 5682 5681 5679 5677 5675 5673 5671 5669 5667 5666 5664 5663 5661 5660 5659 5657 5656 5655 5654 5653 5652 5652
5675 5673 5671 5671 5672 5672 5673 5673 5673 5673 5673 5674 5673 5672 5671 5670 5667 5665 5664 5662 5660 5658 5655 5653 5651 5650 5648 5646 5644 5642 5640 5639 5637 5635 5634 5632 5631 5630
5657 5655 5654 5655 5656 5657 5658 5658 5659 5659 5659 5659 5659 5658 5657 5655 5652 5650 5649 5647 5644 5642 5639 5637 5635 5633 5631 5628 5626 5624 5622 5619 5617 5615 5613 5611 5609 5607
5642 5640 5639 5640 5641 5642 5644 5645 5645 5646 5646 5646 5645 5644 5643 5641 5638 5636 5634 5631 5629 5626 5623 5621 5618 5615 5613 5610 5608 5605 5602 5600 5597 5594 5591 5589 5586 5583
5629 5628 5627 5627 5628 5630 5631 5631 5633 5634 5634 5633 5632 5631 5629 5627 5625 5623 5620 5616 5613 5610 5607 5604 5601 5598 5594 5591 5588 5585 5582 5579 5576 5573 5569 5565 5562 5559
5620 5618 5617 5617 5618 5619 5620 5621 5622 5622 5622 5621 5620 5618 5616 5614 5611 5608 5605 5601 5597 5594 5590 5587 5583 5579 5576 5572 5569 5565 5562 5558 5554 5551 5547 5543 5539 5535
5613 5611 5610 5610 5610 5610 5611 5611 5611 5611 5611 5610 5608 5606 5604 5601 5598 5594 5590 5586 5581 5578 5574 5569 5566 5561 5556 5551 5547 5543 5540 5536 5532 5528 5524 5520 5516 5512
5608 5606 5605 5604 5603 5603 5603 5602 5602 5601 5600 5599 5596 5594 5591 5588 5584 5580 5576 5571 5566 5562 5558 5552 5547 5542 5536 5531 5526 5522 5518 5515 5511 5507 5503 5499 5495 5491
5604 5602 5600 5599 5598 5597 5596 5595 5594 5592 5591 5588 5585 5582 5579 5575 5571 5566 5561 5556 5550 5545 5541 5535 5529 5523 5516 5510 5506 5502 5498 5494 5491 5487 5483 5479 5475 5472
5601 5598 5596 5594 5593 5591 5590 5588 5586 5583 5581 5578 5574 5570 5565 5561 5556 5551 5545 5540 5533 5527 5523 5519 5511 5506 5498 5491 5486 5482 5478 5475 5472 5468 5465 5461 5458 5454
5597 5594 5592 5590 5587 5585 5583 5580 5577 5574 5570 5566 5562 5557 5551 5546 5541 5535 5529 5523 5517 5509 5505 5501 5495 5490 5483 5474 5468 5464 5460 5457 5454 5451 5447 5444 5441 5439
5593 5590 5587 5584 5581 5578 5575 5571 5568 5563 5559 5554 5549 5543 5537 5531 5525 5519 5513 5507 5500 5494 5488 5484 5479 5474 5471 5462 5453 5449 5445 5441 5438 5435 5432 5429 5427 5424
5588 5585 5581 5578 5574 5570 5566 5562 5557 5553 5547 5541 5535 5529 5522 5516 5509 5503 5496 5490 5484 5478 5473 5469 5464 5459 5455 5451 5443 5436 5432 5428 5425 5421 5418 5416 5413 5411
5582 5579 5575 5570 5566 5562 5557 5552 5547 5541 5535 5528 5521 5515 5508 5501 5494 5487 5480 5474 5468 5463 5458 5454 5451 5446 5442 5438 5433 5427 5421 5417 5413 5410 5407 5404 5401 5398
5576 5572 5567 5563 5558 5553 5547 5541 5535 5529 5522 5515 5508 5500 5493 5486 5479 5472 5465 5459 5454 5448 5444 5440 5437 5434 5429 5426 5421 5416 5412 5407 5403 5400 5397 5393 5390 5387
5569 5564 5559 5554 5549 5543 5537 5530 5524 5517 5509 5502 5494 5486 5478 5471 5463 5457 5451 5446 5441 5436 5431 5428 5425 5422 5418 5414 5410 5405 5401 5398 5394 5390 5387 5383 5379 5376
5561 5556 5551 5545 5539 5533 5526 5519 5512 5504 5496 5488 5480 5472 5464 5456 5449 5443 5438 5433 5430 5426 5421 5417 5414 5411 5407 5403 5399 5395 5391 5387 5384 5381 5378 5374 5369 5366
5553 5547 5542 5536 5529 5522 5515 5508 5500 5492 5484 5475 5467 5458 5450 5443 5437 5431 5426 5422 5418 5415 5411 5408 5405 5402 5398 5393 5388 5385 5381 5378 5374 5370 5367 5364 5361 5356
5544 5538 5532 5526 5519 5511 5504 5496 5488 5480 5472 5463 5454 5446 5439 5432 5426 5421 5416 5412 5408 5405 5401 5397 5394 5392 5389 5386 5381 5374 5371 5369 5365 5362 5357 5354 5351 5347
5535 5529 5522 5515 5508 5500 5493 5485 5477 5468 5460 5452 5443 5436 5429 5423 5417 5412 5407 5403 5400 5396 5392 5388 5384 5381 5378 5376 5374 5368 5361 5358 5355 5352 5348 5344 5341 5338
5525 5519 5512 5505 5497 5489 5481 5473 5465 5457 5449 5441 5433 5426 5420 5414 5409 5404 5399 5395 5391 5388 5384 5380 5375 5372 5368 5366 5364 5360 5354 5348 5344 5341 5338 5335 5333 5329
5515 5508 5501 5494 5486 5478 5470 5462 5454 5446 5438 5430 5423 5417 5411 5406 5401 5396 5391 5387 5383 5379 5375 5371 5367 5363 5359 5356 5353 5350 5346 5341 5335 5331 5327 5325 5323 5321
5505 5498 5491 5483 5475 5467 5459 5451 5443 5435 5428 5420 5414 5408 5402 5397 5392 5387 5383 5378 5374 5370 5366 5363 5359 5354 5350 5346 5343 5340 5336 5332 5328 5324 5319 5315 5313 5312